• In Czech Republic
  • List of Countries
  • For 7 days
  • Water Temperature
  • Satellite Maps
  • Weather Map
  • Weather Widgets
  • user-avatar
    Login

    Hourly Weather Aldaia

    Today, 17 August, Friday

    Time Temperature Precipitation Wind Pressure Humidity
    00:00 +28°C° 0 mm 2 mps 757 mmHg 63%
    01:00 +28°C° 1 mm 2 mps 757 mmHg 66%
    02:00 +27°C° 1 mm 1 mps 757 mmHg 68%
    03:00 +27°C° 1 mm 1 mps 757 mmHg 71%
    04:00 +27°C° 0.5 mm 1 mps 757 mmHg 71%
    05:00 +27°C° 0.5 mm 1 mps 757 mmHg 71%
    06:00 +27°C° 0 mm 1 mps 758 mmHg 71%
    07:00 +27°C° 0.4 mm 1 mps 758 mmHg 66%
    08:00 +28°C° 0.4 mm 2 mps 758 mmHg 61%
    09:00 +29°C° 0.4 mm 2 mps 758 mmHg 56%
    10:00 +30°C° 0.4 mm 2 mps 758 mmHg 52%
    11:00 +33°C° 0.4 mm 3 mps 758 mmHg 48%
    12:00 +33°C° 0 mm 4 mps 758 mmHg 48%
    13:00 +33°C° 0.7 mm 4 mps 758 mmHg 50%
    14:00 +33°C° 0.7 mm 3 mps 758 mmHg 51%
    15:00 +33°C° 0.7 mm 3 mps 757 mmHg 52%
    16:00 +31°C° 0.7 mm 3 mps 757 mmHg 56%
    17:00 +30°C° 0.7 mm 3 mps 757 mmHg 59%
    18:00 +30°C° 0.7 mm 3 mps 757 mmHg 62%
    19:00 +29°C° 0.5 mm 3 mps 758 mmHg 65%
    20:00 +28°C° 0.5 mm 3 mps 758 mmHg 67%
    21:00 +28°C° 0.5 mm 2 mps 759 mmHg 70%
    22:00 +27°C° 0 mm 2 mps 759 mmHg 70%
    23:00 +27°C° 0 mm 1 mps 759 mmHg 71%

    Tomorrow, 18 August, Saturday

    Time Temperature Precipitation Wind Pressure Humidity
    00:00 +27°C° 0 mm 1 mps 759 mmHg 71%
    01:00 +26°C° 0 mm 1 mps 759 mmHg 70%
    02:00 +26°C° 0 mm 1 mps 759 mmHg 70%
    03:00 +26°C° 0 mm 2 mps 759 mmHg 69%
    04:00 +25°C° 0.1 mm 2 mps 759 mmHg 69%
    05:00 +25°C° 0.1 mm 2 mps 759 mmHg 69%
    06:00 +25°C° 0.1 mm 3 mps 759 mmHg 70%
    07:00 +26°C° 0.2 mm 3 mps 759 mmHg 68%
    08:00 +27°C° 0.2 mm 4 mps 760 mmHg 67%
    09:00 +28°C° 0.2 mm 4 mps 760 mmHg 66%
    10:00 +28°C° 0.6 mm 4 mps 760 mmHg 67%
    11:00 +28°C° 0.6 mm 4 mps 760 mmHg 68%
    12:00 +28°C° 0.6 mm 5 mps 760 mmHg 69%
    13:00 +28°C° 0.7 mm 4 mps 759 mmHg 70%
    14:00 +28°C° 0.7 mm 4 mps 759 mmHg 71%
    15:00 +28°C° 0.7 mm 4 mps 759 mmHg 72%
    16:00 +28°C° 0.5 mm 4 mps 759 mmHg 73%
    17:00 +28°C° 0.5 mm 4 mps 759 mmHg 74%
    18:00 +28°C° 0.5 mm 3 mps 759 mmHg 76%
    19:00 +27°C° 0.6 mm 3 mps 759 mmHg 79%
    20:00 +26°C° 0.6 mm 2 mps 760 mmHg 83%
    21:00 +26°C° 0.6 mm 2 mps 760 mmHg 86%
    22:00 +26°C° 0.3 mm 2 mps 760 mmHg 87%
    23:00 +26°C° 0.3 mm 1 mps 760 mmHg 88%

    Day after tomorrow, 19 August, Sunday

    Time Temperature Precipitation Wind Pressure Humidity
    00:00 +25°C° 0.3 mm 1 mps 760 mmHg 88%
    01:00 +25°C° 0 mm 1 mps 760 mmHg 89%
    02:00 +25°C° 0 mm 1 mps 760 mmHg 90%
    03:00 +25°C° 0 mm 1 mps 760 mmHg 90%
    04:00 +25°C° 0 mm 1 mps 760 mmHg 89%
    05:00 +25°C° 0 mm 1 mps 760 mmHg 89%
    06:00 +25°C° 0 mm 1 mps 760 mmHg 88%
    07:00 +26°C° 0 mm 1 mps 761 mmHg 78%
    08:00 +27°C° 0 mm 2 mps 761 mmHg 69%
    09:00 +29°C° 0 mm 2 mps 761 mmHg 59%
    10:00 +30°C° 0 mm 3 mps 761 mmHg 54%
    11:00 +31°C° 0 mm 3 mps 760 mmHg 48%
    12:00 +33°C° 0 mm 4 mps 760 mmHg 43%
    13:00 +33°C° 0 mm 4 mps 760 mmHg 42%
    14:00 +34°C° 0 mm 4 mps 760 mmHg 42%
    15:00 +34°C° 0 mm 4 mps 759 mmHg 41%
    16:00 +33°C° 0 mm 4 mps 759 mmHg 45%
    17:00 +32°C° 0 mm 4 mps 759 mmHg 48%
    18:00 +30°C° 0 mm 3 mps 759 mmHg 52%
    19:00 +29°C° 0 mm 2 mps 760 mmHg 57%
    20:00 +28°C° 0 mm 2 mps 760 mmHg 61%
    21:00 +27°C° 0 mm 1 mps 760 mmHg 66%
    22:00 +27°C° 0 mm 1 mps 760 mmHg 67%
    23:00 +27°C° 0 mm 1 mps 760 mmHg 67%

    20 August, Monday

    Time Temperature Precipitation Wind Pressure Humidity
    00:00 +26°C° 0 mm 1 mps 760 mmHg 68%
    01:00 +26°C° 0 mm 1 mps 760 mmHg 67%
    02:00 +26°C° 0 mm 2 mps 759 mmHg 66%
    03:00 +26°C° 0 mm 2 mps 759 mmHg 65%
    04:00 +26°C° 0 mm 2 mps 759 mmHg 65%
    05:00 +26°C° 0 mm 2 mps 759 mmHg 64%
    06:00 +26°C° 0 mm 2 mps 759 mmHg 63%
    07:00 +28°C° 0 mm 2 mps 760 mmHg 54%
    08:00 +29°C° 0 mm 2 mps 760 mmHg 45%
    09:00 +31°C° 0 mm 2 mps 760 mmHg 35%
    10:00 +32°C° 0 mm 2 mps 760 mmHg 34%
    11:00 +34°C° 0 mm 2 mps 760 mmHg 32%
    12:00 +35°C° 0 mm 3 mps 759 mmHg 30%
    13:00 +36°C° 0 mm 3 mps 759 mmHg 30%
    14:00 +36°C° 0 mm 3 mps 759 mmHg 30%
    15:00 +36°C° 0 mm 4 mps 758 mmHg 29%
    16:00 +35°C° 0 mm 4 mps 758 mmHg 32%
    17:00 +34°C° 0 mm 4 mps 758 mmHg 35%
    18:00 +34°C° 0 mm 4 mps 758 mmHg 37%
    19:00 +31°C° 0 mm 3 mps 758 mmHg 41%
    20:00 +30°C° 0 mm 2 mps 759 mmHg 45%
    21:00 +29°C° 0 mm 2 mps 759 mmHg 49%
    22:00 +28°C° 0 mm 1 mps 759 mmHg 51%
    23:00 +28°C° 0 mm 1 mps 759 mmHg 53%

    21 August, Tuesday

    Time Temperature Precipitation Wind Pressure Humidity
    00:00 +28°C° 0 mm 1 mps 759 mmHg 54%
    01:00 +27°C° 0 mm 1 mps 759 mmHg 54%
    02:00 +27°C° 0 mm 1 mps 759 mmHg 54%
    03:00 +27°C° 0 mm 1 mps 758 mmHg 53%
    04:00 +27°C° 0 mm 1 mps 759 mmHg 53%
    05:00 +27°C° 0 mm 1 mps 759 mmHg 53%
    06:00 +27°C° 0 mm 2 mps 759 mmHg 52%
    07:00 +29°C° 0 mm 1 mps 759 mmHg 47%
    08:00 +31°C° 0 mm 1 mps 759 mmHg 42%
    09:00 +32°C° 0 mm 1 mps 759 mmHg 36%
    10:00 +34°C° 0 mm 2 mps 759 mmHg 34%
    11:00 +35°C° 0 mm 2 mps 759 mmHg 31%
    12:00 +36°C° 0 mm 3 mps 759 mmHg 28%
    13:00 +37°C° 0 mm 3 mps 758 mmHg 28%
    14:00 +37°C° 0 mm 4 mps 758 mmHg 28%
    15:00 +37°C° 0 mm 4 mps 758 mmHg 28%
    16:00 +36°C° 0 mm 4 mps 758 mmHg 31%
    17:00 +35°C° 0 mm 4 mps 758 mmHg 34%
    18:00 +34°C° 0 mm 4 mps 758 mmHg 36%
    19:00 +33°C° 0 mm 3 mps 758 mmHg 40%
    20:00 +31°C° 0 mm 2 mps 758 mmHg 45%
    21:00 +30°C° 0 mm 2 mps 759 mmHg 49%
    22:00 +29°C° 0 mm 1 mps 758 mmHg 50%
    23:00 +29°C° 0 mm 1 mps 758 mmHg 52%

    22 August, Wednesday

    Time Temperature Precipitation Wind Pressure Humidity
    00:00 +28°C° 0 mm 1 mps 758 mmHg 53%
    01:00 +28°C° 0 mm 1 mps 758 mmHg 53%
    02:00 +28°C° 0 mm 1 mps 758 mmHg 53%
    03:00 +28°C° 0 mm 1 mps 758 mmHg 52%
    04:00 +27°C° 0 mm 1 mps 758 mmHg 52%
    05:00 +27°C° 0 mm 1 mps 758 mmHg 52%
    06:00 +27°C° 0 mm 1 mps 758 mmHg 52%
    07:00 +29°C° 0 mm 1 mps 758 mmHg 46%
    08:00 +31°C° 0 mm 1 mps 758 mmHg 40%
    09:00 +33°C° 0 mm 1 mps 758 mmHg 34%
    10:00 +35°C° 0 mm 2 mps 758 mmHg 32%
    11:00 +36°C° 0 mm 3 mps 758 mmHg 29%
    12:00 +37°C° 0 mm 4 mps 758 mmHg 26%
    13:00 +37°C° 0 mm 4 mps 758 mmHg 27%
    14:00 +37°C° 0 mm 4 mps 758 mmHg 27%
    15:00 +37°C° 0 mm 4 mps 757 mmHg 27%
    16:00 +36°C° 0 mm 4 mps 757 mmHg 30%
    17:00 +35°C° 0 mm 4 mps 757 mmHg 33%
    18:00 +35°C° 0 mm 4 mps 757 mmHg 35%
    19:00 +33°C° 0 mm 3 mps 758 mmHg 40%
    20:00 +31°C° 0 mm 2 mps 758 mmHg 45%
    21:00 +30°C° 0 mm 1 mps 758 mmHg 49%
    22:00 +29°C° 0 mm 1 mps 758 mmHg 51%
    23:00 +27°C° 0 mm 0 mps 758 mmHg 52%
    Show more